This is the latest recevied weather packets stored in our database for station/object IW1QLH-13. If no packets are shown the sender has not sent any weather packets the latest 10 day(s).
| Time | Temp. | Humidity | Pressure | Rain* | Wind** | Luminosity | Snow |
|---|---|---|---|---|---|---|---|
| 1788525511 | 28.89° C | 11% | - | - | - | 972 W/m² | - |
| 1788524900 | 30° C | 11% | - | - | - | 958 W/m² | - |
| 1788524284 | 30° C | 11% | - | - | - | 958 W/m² | - |
| 1788523672 | 28.89° C | 11% | - | - | - | 972 W/m² | - |
| 1788523057 | 30.56° C | 11% | - | - | - | 958 W/m² | - |
| 1788522446 | 28.89° C | 11% | - | - | - | 958 W/m² | - |
| 1788521834 | 30.56° C | 11% | - | - | - | 958 W/m² | - |
| 1788521216 | 30° C | 11% | - | - | - | 943 W/m² | - |
| 1788520604 | 28.89° C | 11% | - | - | - | 900 W/m² | - |
| 1788519992 | 30° C | 11% | - | - | - | 829 W/m² | - |
| 1788519407 | 30.56° C | 11% | - | - | - | 886 W/m² | - |
| 1788518769 | 30° C | 11% | - | - | - | 872 W/m² | - |
| 1788518157 | 28.89° C | 11% | - | - | - | 843 W/m² | - |
| 1788517545 | 30° C | 11% | - | - | - | 858 W/m² | - |
| 1788516934 | 28.89° C | 11% | - | - | - | 829 W/m² | - |
| 1788516319 | 28.89° C | 11% | - | - | - | 800 W/m² | - |
| 1788515707 | 30.56° C | 11% | - | - | - | 772 W/m² | - |
| 1788515096 | 30° C | 11% | - | - | - | 743 W/m² | - |
| 1788514484 | 28.89° C | 11% | - | - | - | 715 W/m² | - |
| 1788513873 | 28.89° C | 11% | - | - | - | 686 W/m² | - |
| 1788513261 | 28.89° C | 11% | - | - | - | 657 W/m² | - |
| 1788512649 | 30° C | 11% | - | - | - | 629 W/m² | - |
| 1788512037 | 28.89° C | 11% | - | - | - | 586 W/m² | - |
| 1788511425 | 28.89° C | 11% | - | - | - | 557 W/m² | - |
| 1788510814 | 30.56° C | 11% | - | - | - | 514 W/m² | - |
* Rain since midnight (hover to see other rain measurements)
** Current wind speed in m/s (hover to see current wind gust speed)